TimeCST,TemperatureF,Dew PointF,Humidity,Sea Level PressureIn,VisibilityMPH,Wind Direction,Wind SpeedMPH,Gust SpeedMPH,PrecipitationIn,Events,Conditions,WindDirDegrees,DateUTC
12:53 AM,43.0,39.0,86,30.13,10.0,North,6.9,-,N/A,,Clear,360,2012-12-12 06:53:00
1:53 AM,43.0,37.9,82,30.12,10.0,North,8.1,-,N/A,,Clear,10,2012-12-12 07:53:00
2:53 AM,43.0,37.9,82,30.10,10.0,North,11.5,-,N/A,,Clear,10,2012-12-12 08:53:00
3:53 AM,43.0,37.0,80,30.12,10.0,North,6.9,-,0.00,Rain,Light Rain,360,2012-12-12 09:53:00
4:53 AM,43.0,37.0,80,30.13,10.0,NNE,8.1,-,0.00,,Overcast,20,2012-12-12 10:53:00
5:53 AM,43.0,37.0,80,30.15,10.0,North,6.9,-,N/A,,Overcast,360,2012-12-12 11:53:00
6:53 AM,43.0,36.0,76,30.14,10.0,NNE,6.9,-,N/A,,Overcast,20,2012-12-12 12:53:00
7:53 AM,44.1,37.0,76,30.18,10.0,NNE,4.6,-,N/A,,Scattered Clouds,20,2012-12-12 13:53:00
8:53 AM,44.1,36.0,73,30.20,10.0,North,5.8,-,N/A,,Overcast,10,2012-12-12 14:53:00
9:53 AM,46.0,37.0,71,30.18,10.0,North,11.5,-,N/A,,Overcast,350,2012-12-12 15:53:00
10:53 AM,48.0,37.9,68,30.17,10.0,North,9.2,-,N/A,,Overcast,350,2012-12-12 16:53:00
11:53 AM,48.9,37.9,66,30.17,10.0,NNW,8.1,-,N/A,,Overcast,330,2012-12-12 17:53:00
12:53 PM,53.1,37.9,57,30.15,10.0,NNW,10.4,-,N/A,,Mostly Cloudy,340,2012-12-12 18:53:00
1:53 PM,55.9,35.1,45,30.14,10.0,North,6.9,-,N/A,,Clear,350,2012-12-12 19:53:00
2:53 PM,57.0,32.0,39,30.15,10.0,North,9.2,-,N/A,,Scattered Clouds,360,2012-12-12 20:53:00
3:53 PM,57.0,33.1,40,30.17,10.0,North,6.9,-,N/A,,Clear,360,2012-12-12 21:53:00
4:53 PM,52.0,34.0,50,30.18,10.0,North,5.8,-,N/A,,Clear,350,2012-12-12 22:53:00
5:53 PM,50.0,33.1,52,30.20,10.0,North,8.1,-,N/A,,Clear,350,2012-12-12 23:53:00
6:53 PM,48.9,33.1,54,30.20,10.0,North,6.9,-,N/A,,Clear,360,2012-12-13 00:53:00
7:53 PM,48.9,34.0,56,30.22,10.0,North,5.8,-,N/A,,Clear,350,2012-12-13 01:53:00
8:53 PM,46.0,34.0,63,30.23,10.0,North,5.8,-,N/A,,Clear,350,2012-12-13 02:53:00
9:53 PM,42.1,34.0,73,30.25,10.0,NW,4.6,-,N/A,,Clear,320,2012-12-13 03:53:00
10:53 PM,41.0,34.0,76,30.25,10.0,NW,5.8,-,N/A,,Clear,320,2012-12-13 04:53:00
11:53 PM,42.1,35.1,76,30.25,10.0,NNW,8.1,-,N/A,,Clear,340,2012-12-13 05:53:00